Location: Hicks
(37.9226°N, 89.9954°W)
Time: 08:23:14
(UTC+00:00)

Cosmos 2322 - Pass Details

Date: 14 December 2025
Orbit: 840 x 853 km, 71.0° (Epoch: 24 January)

Event Time Altitude Azimuth Distance (km) Brightness Sun altitude
Rises 12:17:19 0° 341° (NNW) 3,404 6.5 -9.9°
Reaches altitude 10° 12:19:48 10° 344° (NNW) 2,468 5.8 -9.4°
Maximum altitude 12:25:25 62° 66° (ENE) 944 4.2 -8.4°
Drops below altitude 10° 12:31:00 10° 147° (SSE) 2,462 7.1 -7.4°
Sets 12:33:28 0° 150° (SSE) 3,395 7.8 -6.9°
